#timestamp,LO_Frequency,Hit,StdDev 
1508036415.6,286046990.5,Y
1508036435.5,286046991.9,P
1508036455.3,286046994.8,N
1508036475.1,286046996.4,N
1508036495.9,286046995.9,N
1508036515.7,286046997.3,N
1508036535.5,286046991.7,Y
1508036555.4,286046992.0,P
1508036575.2,286046987.3,P
1508036595.0,286046987.2,P
1508036595.9,286046987.2,Y
1508036615.8,286046995.9,P
1508036635.6,286046993.8,N
1508036655.4,286046990.2,P
1508036675.3,286046990.5,Y
1508036695.1,286047000.4,P
1508036715.8,286046999.6,N
1508036735.7,286046997.4,N
1508036755.5,286046995.5,N
1508036775.3,286046994.9,N
1508036795.2,286046994.6,N
1508036815.9,286046995.9,N
1508036835.7,286046995.0,N
1508036855.6,286046993.5,N
1508036875.4,286046994.9,N
1508036895.2,286046995.3,N
1508036915.1,286046996.1,N
1508036916.0,286046996.1,N
1508036935.8,286046999.6,N
1508036955.6,286047000.7,N
1508036975.4,286047004.0,N
1508036995.3,286047003.4,N
1508037015.1,286047004.6,N
1508037035.8,286047008.3,N
1508037055.7,286047008.3,N
1508037075.5,286047007.8,N
1508037095.3,286047008.6,N
1508037115.2,286047008.1,N
1508037135.9,286047010.6,N
1508037155.7,286047012.0,N
1508037175.6,286047009.4,N
1508037195.4,286047011.9,N
1508037215.2,286047009.7,N
1508037235.1,286047013.2,N
1508037236.0,286047013.2,N
1508037255.8,286047012.6,N
1508037275.6,286047016.7,N
1508037295.5,286047017.0,N
1508037315.3,286047012.5,N
1508037335.1,286047009.7,N
1508037355.8,286047011.6,N
1508037375.7,286047011.4,N
1508037395.5,286047010.2,N
1508037415.3,286047012.7,N
1508037435.2,286047016.4,N
1508037455.9,286047015.7,N
1508037475.7,286047016.6,Y
1508037495.6,286047008.0,P
1508037515.4,286047009.2,P
1508037535.2,286047008.5,P
1508037555.1,286047004.6,Y
1508037556.0,286047004.6,P
1508037575.8,286046997.1,N
1508037595.6,286046999.0,N
1508037615.5,286046999.9,N
1508037635.3,286046998.4,N
1508037655.1,286046999.7,N
1508037675.9,286047000.3,N
1508037695.7,286047004.3,N
1508037715.5,286047004.3,N
1508037735.4,286047006.0,N
1508037755.2,286047006.0,N
1508037775.0,286047000.9,N
1508037775.9,286047000.9,N
1508037795.7,286046999.3,N
1508037815.6,286047002.0,N
1508037835.4,286047005.3,N
1508037855.2,286047008.5,N
1508037875.1,286047007.3,N
1508037876.0,286047007.3,N
1508037895.8,286047000.7,N
1508037915.6,286046999.9,N
1508037935.5,286046998.2,N
1508037955.3,286046996.7,N
1508037975.1,286046995.5,N
1508037995.9,286046997.8,N
1508038015.7,286046999.6,N
1508038035.5,286047001.1,N
1508038055.3,286047000.5,N
1508038075.2,286046998.4,N
1508038095.0,286047001.9,N
1508038095.9,286047001.9,N
1508038115.7,286047003.9,N
1508038135.6,286047002.1,N
1508038155.4,286047002.2,N
1508038175.2,286047001.9,N
1508038195.1,286047005.9,N
1508038196.0,286047005.9,N
1508038215.8,286047001.3,N
1508038235.6,286047002.2,N
1508038255.5,286047004.0,N
1508038275.3,286047004.4,N
1508038295.1,286047003.0,N
1508038315.9,286047000.4,N
1508038335.7,286046998.1,N
1508038355.5,286047000.9,N
1508038375.4,286047002.3,N
1508038395.2,286047002.6,N
1508038415.0,286047002.7,N
1508038415.9,286047002.7,N
1508038435.7,286047005.4,N
1508038455.6,286046999.8,N
1508038475.4,286046997.0,N
1508038495.2,286046999.4,N
1508038515.1,286046998.8,N
1508038516.0,286046998.8,N
1508038535.8,286046997.0,N
1508038555.6,286046995.7,N
1508038575.5,286046995.9,N
1508038595.3,286046992.6,N
1508038615.1,286046990.6,Y
1508038635.9,286046993.1,P
1508038655.7,286046993.1,N
1508038675.5,286046990.7,N
1508038695.4,286046992.1,N
1508038715.2,286046993.3,N
1508038735.0,286046995.9,N
1508038735.9,286046995.9,N
1508038755.8,286046995.0,N
1508038775.6,286046995.9,N
1508038795.4,286046995.7,N
1508038815.3,286046995.6,N
1508038835.1,286046997.3,N
1508038836.0,286046997.3,N
1508038855.8,286046995.4,N
1508038875.6,286046997.6,N
1508038895.5,286046995.0,N
1508038915.3,286046995.4,N
1508038935.1,286046998.0,N
1508038955.9,286046995.2,N
1508038975.7,286046993.3,Y
1508038995.5,286047000.4,P
1508039015.4,286046998.2,N
1508039035.2,286047000.7,N
1508039055.0,286047000.1,N
1508039055.9,286047000.1,N
1508039075.8,286047002.6,N
1508039095.6,286047001.5,N
1508039115.4,286047001.6,N
1508039135.3,286047002.5,N
1508039155.1,286047002.4,N
1508039175.8,286047004.2,N
1508039195.7,286047002.5,N
1508039215.5,286047002.1,N
1508039235.3,286047002.3,N
1508039255.2,286047001.3,N
1508039275.9,286047005.1,N
1508039295.7,286047003.6,N
1508039315.6,286047002.1,N
1508039335.4,286047005.3,N
1508039355.2,286047008.5,Y
1508039375.1,286047007.2,P
1508039376.0,286047007.2,N
1508039395.8,286047008.5,P
1508039415.6,286047008.0,Y
1508039435.5,286047003.5,P
1508039455.3,286047005.0,P
1508039475.1,286047001.4,N
1508039495.9,286047005.1,N
1508039515.7,286047003.7,N
1508039535.5,286047003.4,N
1508039555.3,286047004.0,N
1508039575.2,286047001.7,N
1508039595.0,286047004.2,N
1508039595.9,286047004.2,Y
1508039615.7,286046998.0,P
1508039635.6,286046997.7,N
1508039655.4,286046995.0,N
1508039675.2,286046993.4,N
1508039695.1,286046993.7,N
1508039696.0,286046993.7,N
1508039715.8,286046997.2,N
1508039735.6,286046998.7,N
1508039755.5,286046996.9,N
1508039775.3,286046995.1,N
1508039795.1,286046993.5,N
1508039815.9,286046994.5,N
1508039835.7,286046993.3,N
1508039855.5,286046997.5,N
1508039875.4,286047001.1,N
1508039895.2,286046999.3,N
1508039915.0,286046999.1,N
1508039915.9,286046999.1,N
1508039935.7,286046998.2,N
1508039955.6,286046999.4,N
1508039975.4,286046998.7,N
1508039995.2,286047000.5,N
